ECMWFFLT1_925_thetae_000.txt.gz
Theta_e
276 276 275 275 275 275 275 274 274 274 274 274 274 274 274 275 275 275 275 275 274 274 274 274 274 274 274 274 274 274 273 272 273 273 272 272 271 271 272 272 272 272 271 271 271 271 271 271 271 271 271 271 271 272 272 272 273 273 274 274 274 275 275
276 276 275 275 275 275 274 274 274 274 274 274 274 274 274 274 275 275 275 274 274 274 274 274 274 274 274 274 274 274 273 272 272 272 272 271 271 271 271 271 272 271 271 271 271 271 271 271 271 271 271 271 272 272 272 272 272 273 273 273 274 274 275
276 275 275 275 275 274 274 274 274 274 274 274 274 274 274 274 274 274 274 274 274 274 274 274 274 274 274 274 274 273 272 272 272 272 271 270 270 271 271 271 271 271 271 271 271 271 271 271 271 271 272 272 272 272 272 272 272 272 273 273 274 274 274
276 275 275 275 274 274 274 274 274 274 274 274 274 274 274 274 274 274 274 274 274 274 274 274 274 275 275 274 273 272 272 271 272 271 270 269 270 270 270 270 271 271 271 271 271 271 271 271 271 271 271 272 272 272 272 272 272 272 273 273 274 274 274
276 275 275 275 274 274 274 274 274 274 274 274 274 274 274 274 274 274 274 273 273 273 274 274 275 275 275 274 273 272 271 271 271 271 270 269 269 270 270 270 270 271 271 271 271 271 271 271 271 271 272 272 272 272 272 272 272 273 273 273 274 274 274
276 275 275 274 274 274 274 274 274 274 274 274 273 273 273 273 273 273 273 273 273 273 274 275 275 275 275 274 273 272 271 271 271 270 269 269 269 270 270 270 271 271 271 272 272 272 272 272 272 272 272 272 272 272 272 272 273 273 273 273 274 274 275
275 275 275 274 274 274 274 274 274 274 273 273 273 273 273 273 273 273 272 272 273 274 275 275 275 275 275 274 273 272 271 270 270 270 269 270 270 270 271 271 272 272 272 272 272 272 272 272 272 272 272 272 272 272 272 272 273 273 273 273 274 274 275
275 275 275 275 274 274 274 274 274 274 273 273 273 273 273 273 273 272 272 273 274 275 275 275 275 275 274 273 272 272 271 271 271 270 270 270 270 271 271 272 272 272 273 273 273 273 273 272 272 272 272 272 272 272 272 273 273 273 273 274 274 275 275
275 275 275 275 274 274 274 274 274 273 273 273 273 273 273 272 272 272 273 274 275 275 275 275 275 274 273 272 272 272 272 272 272 271 270 270 271 271 272 272 272 273 273 273 272 272 272 272 272 272 271 271 271 272 272 272 273 273 273 274 274 275 275
275 275 275 274 274 274 274 274 274 273 273 273 273 273 272 272 272 273 274 274 275 275 276 275 274 273 273 272 272 272 272 272 271 270 270 271 271 272 272 273 273 273 272 272 272 271 271 271 271 271 271 271 271 271 272 272 272 273 273 274 274 275 275
275 275 274 274 274 274 274 274 273 273 274 274 274 273 273 272 273 274 274 275 275 275 275 275 274 273 272 272 272 271 271 270 270 269 270 271 272 272 272 273 273 272 271 271 271 271 271 270 271 271 271 271 271 271 271 271 272 273 274 274 274 274 275
275 274 274 274 274 274 274 274 273 274 274 275 274 274 274 273 273 274 274 275 275 275 275 274 273 273 272 272 271 271 270 270 269 268 269 271 271 272 272 272 272 271 271 271 271 270 270 270 270 270 270 270 270 271 271 271 271 272 273 273 273 273 274
275 274 274 274 274 274 274 273 273 274 275 275 275 275 274 274 274 274 274 275 275 275 274 274 273 273 272 272 271 270 270 269 268 268 269 271 271 271 271 270 270 270 270 270 270 270 270 269 269 269 268 269 269 270 271 271 271 272 272 273 273 273 274
275 274 274 274 274 274 274 273 273 274 275 275 275 275 275 274 274 274 274 274 274 274 274 273 273 272 272 271 271 270 270 269 268 269 270 271 271 270 269 268 268 268 268 269 269 269 269 269 268 268 268 268 268 269 269 270 271 271 272 273 273 273 274
275 274 274 274 274 274 274 273 273 274 275 275 275 275 274 274 274 274 274 274 274 274 273 273 272 272 272 271 271 270 269 268 268 270 272 272 271 269 268 267 267 267 268 269 269 269 269 269 268 268 268 268 268 269 269 269 270 270 271 271 272 272 273
275 274 274 274 274 274 274 273 274 274 275 275 275 275 274 274 273 273 274 274 274 273 273 272 272 271 271 271 271 270 269 269 270 272 272 271 269 268 267 267 267 268 269 270 270 269 269 269 269 269 269 269 269 269 269 270 270 270 271 271 271 272 273
275 275 274 274 274 274 274 273 274 274 275 275 275 275 274 273 273 273 273 273 273 273 272 272 271 271 271 271 270 269 269 270 272 272 272 270 269 268 267 266 267 268 268 268 269 269 268 268 268 268 267 267 267 268 269 269 269 270 271 272 272 272 273
275 275 274 274 274 274 274 273 273 274 275 275 275 275 274 273 273 273 273 273 273 273 272 271 271 271 271 270 270 269 269 271 272 272 271 270 268 267 266 267 268 268 268 267 267 267 267 267 266 266 265 264 265 265 266 267 268 269 270 271 272 273 273
275 274 274 274 274 274 274 273 273 274 275 275 275 274 273 273 273 273 273 273 273 272 271 271 270 270 270 270 269 269 270 272 272 271 270 269 268 267 267 268 269 268 267 266 266 265 265 265 265 264 263 263 263 264 264 265 266 267 268 269 271 273 273
274 274 274 274 274 274 274 273 273 273 274 275 275 274 273 273 273 273 273 273 272 271 271 270 270 269 269 269 268 269 271 271 271 271 269 268 267 267 268 269 269 267 266 265 265 265 265 265 265 264 263 262 262 262 262 263 263 265 266 268 269 271 272
274 274 274 274 274 273 273 273 273 273 274 274 274 274 274 273 273 273 273 272 271 271 271 270 269 269 268 268 268 270 271 271 271 270 268 267 267 269 269 269 267 265 265 264 264 265 265 265 265 264 263 263 262 262 262 262 262 263 264 265 267 269 270
274 274 274 274 273 273 273 273 273 272 273 274 274 274 274 273 273 273 272 272 271 271 270 269 268 268 268 268 268 270 271 270 269 268 267 268 269 269 268 266 265 264 264 264 264 264 264 264 264 264 263 263 262 262 262 261 262 262 263 264 265 266 268
274 273 273 273 273 273 273 273 273 272 273 273 274 274 274 274 274 273 273 272 271 270 269 268 268 268 268 268 269 270 270 269 268 267 267 268 268 267 265 264 263 263 263 263 263 263 263 263 264 263 263 263 263 262 262 262 262 262 263 263 264 265 266
273 273 273 273 273 273 273 273 272 272 272 272 273 273 273 274 274 274 273 272 270 269 268 268 268 268 268 269 269 269 268 267 266 267 267 267 266 265 264 263 263 263 263 263 263 262 263 263 263 263 263 263 263 262 262 262 262 263 263 264 264 265 266
273 273 273 273 273 272 272 272 272 272 272 272 272 273 273 274 274 274 272 271 270 269 268 268 268 268 268 268 268 267 266 265 265 266 266 265 265 263 263 263 263 263 262 262 262 262 262 262 262 262 263 263 262 262 262 262 263 263 264 264 265 266 266
273 273 273 272 272 272 272 272 272 272 272 272 272 273 273 274 274 273 272 270 269 269 268 268 267 267 267 266 266 266 265 264 264 264 264 264 263 263 262 263 263 262 262 262 262 262 262 262 262 262 263 263 262 262 262 262 263 263 264 265 265 266 267
272 272 272 272 272 272 272 272 272 272 271 271 272 272 273 273 274 273 271 270 269 268 268 267 267 267 266 266 266 265 265 264 264 264 263 263 263 262 262 262 262 262 262 262 262 262 262 261 261 262 262 262 262 262 262 262 263 263 264 265 265 266 267
272 272 272 272 273 273 273 272 272 272 271 271 271 271 272 272 272 271 270 269 268 268 268 267 266 266 266 266 266 265 265 264 264 264 263 263 263 263 262 262 262 262 262 262 262 262 261 261 261 261 262 262 262 262 262 262 263 263 263 265 265 266 266
273 273 273 273 273 273 273 273 272 272 272 272 271 271 271 271 271 270 269 268 268 268 267 266 266 266 265 265 265 265 264 264 264 264 264 263 263 262 262 262 262 262 262 262 262 261 261 261 261 261 261 261 262 262 262 262 262 262 263 264 265 265 265
273 273 273 273 273 273 273 273 273 273 273 273 272 272 272 271 270 269 269 268 267 267 267 266 265 265 265 264 264 263 263 263 263 263 263 263 263 262 262 262 262 262 261 262 262 261 261 261 261 261 261 261 261 261 262 262 262 262 262 264 264 264 265
274 274 273 273 273 273 274 274 273 273 274 274 274 274 273 271 271 270 269 268 267 267 266 265 265 264 264 264 263 262 262 262 262 262 262 263 263 263 262 262 262 262 261 262 262 261 261 261 261 261 261 261 261 261 261 262 262 262 262 263 263 264 264
275 274 274 274 273 273 274 274 274 274 274 274 274 274 273 272 271 270 269 268 267 266 265 265 265 264 264 263 263 262 262 262 262 262 262 262 262 262 262 262 262 262 262 262 262 261 261 261 261 260 260 260 260 260 261 261 261 262 262 262 262 263 263
275 275 275 275 274 274 274 274 275 275 275 275 274 274 273 271 271 270 269 268 267 266 265 265 264 264 263 263 262 262 262 262 262 262 262 262 262 262 262 262 262 262 262 262 262 261 261 261 260 260 260 260 260 260 260 261 261 261 261 261 262 262 262
275 275 275 275 275 275 274 275 275 275 275 275 274 273 272 271 270 270 269 267 266 266 265 264 264 264 263 262 262 262 262 262 262 262 263 263 262 262 262 262 262 262 262 262 261 261 261 261 260 260 260 260 260 260 260 260 260 261 261 261 261 262 262
275 275 276 276 276 275 275 275 275 275 275 275 274 273 272 270 269 268 267 266 266 265 265 265 265 264 263 262 262 263 262 262 262 262 262 263 262 262 262 262 262 262 262 262 261 261 261 261 260 260 260 260 260 259 259 260 260 260 260 260 260 261 261
274 275 275 276 276 276 275 275 275 275 276 275 274 273 271 268 267 266 266 265 265 265 265 265 265 265 264 263 262 263 263 262 262 262 262 262 262 262 263 263 263 262 262 262 261 261 261 261 260 260 260 260 259 259 259 259 259 260 260 260 260 260 261

ECMWFFLT1_925_thetae_006.txt.gz
Theta_e
282 282 283 282 280 279 279 278 278 277 276 275 275 274 274 274 274 273 273 274 274 274 274 275 274 274 274 274 274 274 274 274 274 274 274 273 273 273 273 273 273 272 272 272 272 271 271 271 270 270 271 271 271 272 272 273 273 273 273 273 273 272 272
282 282 282 281 280 279 279 278 278 277 276 275 275 274 274 274 274 273 273 273 274 274 274 274 274 274 274 274 274 274 274 274 273 273 273 273 273 273 273 273 272 272 271 271 271 271 270 270 270 270 271 271 272 272 272 273 273 273 273 273 273 273 272
282 282 282 280 279 279 279 278 278 277 276 275 275 274 274 274 274 273 273 273 274 274 274 274 274 274 275 274 274 274 274 273 273 273 273 273 273 273 273 273 272 271 270 270 270 270 270 270 270 270 271 271 272 272 273 273 274 273 273 273 273 273 272
281 281 281 280 279 279 278 278 277 277 276 275 275 274 274 274 274 274 274 273 273 274 274 274 274 274 274 274 274 274 273 273 273 273 273 274 273 273 273 272 272 271 270 270 270 270 270 270 270 271 271 272 272 273 273 273 273 273 273 272 272 272 272
281 280 280 279 279 278 278 278 277 276 276 275 275 274 274 274 274 274 274 274 274 274 274 274 274 274 274 274 274 274 273 273 273 273 274 274 273 273 272 272 271 270 270 270 270 270 270 270 271 271 272 272 273 273 273 273 272 272 272 272 272 272 272
280 280 280 279 278 278 278 277 277 276 276 275 275 274 274 274 274 274 274 274 274 274 274 274 274 274 274 274 274 273 273 273 273 273 274 273 273 273 272 271 271 270 270 270 270 270 270 270 271 272 272 273 273 272 272 272 272 272 272 271 271 271 271
280 280 279 279 278 278 277 277 277 276 275 275 275 274 274 274 274 274 274 274 274 274 274 274 274 274 274 274 273 273 273 273 273 273 274 274 273 273 272 271 271 271 271 270 270 270 271 271 272 272 273 273 272 271 271 272 272 272 271 271 271 271 271
280 280 279 278 278 278 277 277 276 276 275 275 275 275 274 274 274 274 274 274 274 273 274 274 274 274 273 273 273 273 273 272 273 273 274 274 274 272 271 271 271 271 271 270 270 271 271 272 272 273 273 272 271 271 271 272 271 271 271 270 270 270 270
280 280 279 278 278 278 277 277 276 276 275 275 275 274 274 274 274 274 274 273 273 273 273 273 273 273 273 273 273 273 273 273 274 275 274 274 274 272 272 272 271 271 271 271 271 271 271 272 273 273 272 271 270 271 271 271 271 271 270 270 269 269 269
280 279 279 278 278 277 277 276 276 276 275 275 275 274 274 274 274 274 274 273 273 273 273 273 273 273 273 273 273 273 274 275 275 275 275 274 274 273 272 272 272 271 271 271 271 271 272 272 272 272 271 270 270 270 270 270 270 270 270 269 269 269 269
279 279 279 278 278 277 277 276 276 276 276 276 276 275 274 274 274 274 274 273 273 273 273 273 273 272 272 272 273 274 275 275 275 274 274 274 274 273 273 272 272 272 272 272 272 272 272 272 271 270 270 269 269 269 269 270 270 270 270 269 269 269 269
279 279 278 278 278 277 277 276 276 276 276 277 277 276 275 274 274 274 274 273 273 273 273 273 272 272 272 273 273 274 274 274 273 273 273 273 273 273 273 273 272 272 272 272 272 272 271 270 270 269 268 268 269 269 270 270 270 270 270 270 269 269 269
279 279 278 278 278 277 277 276 276 276 277 277 277 278 277 276 274 274 274 273 273 273 273 272 272 273 273 274 274 274 273 273 273 272 272 272 272 271 271 271 271 271 272 272 272 271 269 269 268 268 268 269 269 270 270 270 270 270 270 270 269 269 269
279 279 278 278 277 277 277 276 276 277 277 278 278 278 278 277 276 274 274 274 273 273 273 272 273 273 274 274 273 273 273 272 272 272 271 271 271 271 270 270 270 271 271 271 270 269 268 268 268 269 269 269 269 270 270 270 270 270 269 269 268 268 268
279 278 278 278 277 277 277 276 276 277 277 278 278 278 278 278 277 275 275 274 274 273 273 273 273 273 273 273 273 273 272 272 272 271 271 271 271 271 270 270 271 271 271 270 269 269 269 269 270 270 269 270 270 270 270 270 269 268 267 267 267 266 267
279 278 278 278 277 277 277 276 277 277 277 278 278 278 279 279 278 276 276 275 274 274 274 273 273 273 273 273 273 273 272 272 272 272 272 272 271 271 271 271 271 270 270 269 270 270 270 270 270 269 269 269 269 269 269 268 268 267 266 265 265 265 266
279 278 278 278 277 277 277 276 277 277 278 278 278 279 279 278 278 277 276 275 275 275 274 274 273 273 273 273 273 272 272 272 272 272 272 272 271 271 271 271 271 269 268 269 269 269 268 268 267 267 267 267 267 267 267 267 266 265 264 263 263 263 264
279 278 278 277 277 277 277 276 276 277 278 278 278 279 278 278 278 277 277 276 275 275 275 274 274 273 273 273 273 272 272 272 272 272 272 272 272 271 271 270 269 268 268 268 267 267 266 266 265 265 265 264 264 265 266 266 265 264 263 262 262 262 263
278 278 277 277 277 277 277 276 276 277 278 278 279 279 279 278 278 277 277 276 275 275 275 274 274 273 273 273 273 272 272 272 272 272 272 272 271 270 269 269 268 268 267 267 266 265 264 264 264 264 263 262 263 264 264 264 263 263 263 262 262 262 262
278 278 277 277 277 277 277 276 276 276 277 278 278 279 279 278 278 277 276 275 275 275 274 274 273 273 273 273 272 272 272 272 272 272 272 271 270 269 269 269 268 267 266 265 264 264 264 264 263 262 262 262 262 262 263 263 263 263 263 262 262 261 262
278 278 277 277 277 276 276 276 276 276 277 278 278 279 279 278 278 277 276 275 275 274 274 273 273 272 272 272 271 271 271 271 272 273 271 270 269 269 269 268 267 266 265 264 263 263 263 263 262 262 261 261 261 262 262 262 263 263 263 262 262 261 261
278 277 277 277 276 276 276 276 276 276 276 277 278 278 279 279 278 277 276 275 274 274 274 273 273 272 272 271 270 271 271 272 272 271 269 269 269 269 268 267 265 264 263 263 263 262 262 261 261 261 261 261 261 262 262 262 262 263 263 263 262 262 261
278 277 277 276 276 276 276 276 276 276 276 276 278 278 279 279 278 277 277 276 275 275 274 273 272 272 271 270 270 271 272 271 270 269 268 269 268 267 265 264 264 263 262 262 262 261 260 260 260 260 260 260 261 261 262 262 262 263 263 263 263 263 262
278 277 276 276 276 276 276 276 275 276 276 276 277 278 278 279 279 278 277 276 276 275 274 273 272 271 271 270 270 271 270 269 268 268 268 267 266 265 264 263 263 262 262 261 261 260 259 260 260 260 260 260 261 261 262 262 263 263 263 264 264 265 264
277 277 276 276 276 276 275 275 275 275 276 276 276 277 278 278 279 278 277 276 276 275 274 273 272 271 271 270 270 270 268 267 267 267 266 265 264 264 263 263 262 261 261 261 260 259 259 259 260 260 260 260 261 261 262 262 263 263 264 264 265 266 266
277 277 276 276 276 276 275 275 275 275 275 276 276 276 277 278 279 278 277 276 276 275 274 273 272 271 270 269 268 268 267 266 265 265 264 264 264 263 263 263 261 261 261 260 259 259 259 260 260 260 260 261 261 261 261 262 262 263 263 264 265 265 266
277 277 276 276 276 275 275 275 274 274 274 275 276 276 276 277 278 278 278 276 275 274 273 272 271 270 269 268 267 266 265 265 264 264 264 264 263 263 263 262 261 261 261 260 259 259 259 259 260 260 260 260 260 261 261 262 262 262 263 264 264 265 265
277 277 276 276 276 275 275 274 274 274 274 274 275 275 276 276 277 278 277 276 274 273 272 271 270 268 267 267 266 265 264 264 264 264 264 263 263 263 263 262 262 262 262 261 260 259 259 259 259 259 259 260 260 260 261 261 262 262 262 263 264 264 264
277 277 277 276 276 275 275 274 274 274 274 274 274 275 275 275 276 277 276 275 274 273 272 270 268 267 266 266 265 264 264 264 264 264 264 263 263 263 263 262 262 262 261 261 260 259 259 259 259 259 259 259 259 260 260 261 261 262 262 263 263 263 264
278 278 277 276 276 276 275 275 275 275 274 274 274 275 275 275 275 276 276 275 274 273 271 269 267 266 265 265 264 264 264 264 264 264 263 263 263 263 263 262 262 261 261 261 260 259 259 258 258 258 258 258 258 259 260 260 260 261 261 262 263 263 263
279 279 278 277 276 276 276 276 275 275 275 275 275 275 275 275 275 275 275 274 273 272 271 268 266 265 264 264 264 264 264 264 264 264 263 263 263 262 262 262 262 261 261 261 260 259 259 258 258 258 258 258 258 258 259 259 260 260 261 261 262 262 263
280 280 279 278 277 276 276 276 276 276 276 276 276 276 276 276 275 275 275 274 273 271 269 267 266 264 264 264 264 264 264 264 264 263 263 263 263 262 262 262 261 261 261 261 260 259 259 258 258 258 258 258 258 258 258 259 259 259 260 260 261 262 262
279 280 280 279 278 277 276 276 276 276 276 276 276 276 276 276 276 275 275 274 272 270 267 266 266 265 264 264 264 264 265 264 264 263 263 262 262 262 262 262 261 262 262 261 260 259 259 258 258 258 258 258 258 258 258 258 258 259 259 259 260 261 261
277 278 279 280 279 278 277 276 276 276 276 277 277 277 277 276 276 276 275 274 272 270 267 265 265 265 265 264 265 265 265 264 264 263 263 262 262 262 262 262 262 262 262 262 261 260 259 259 258 258 258 258 258 258 258 258 258 258 258 259 259 260 260
275 276 277 279 280 279 278 277 276 277 277 277 277 277 277 276 276 276 275 272 270 269 268 266 265 265 265 265 265 266 265 265 264 264 263 263 263 263 263 263 262 262 262 262 261 260 259 259 259 259 258 258 258 257 257 257 257 258 258 258 259 259 260
274 274 275 278 279 279 278 277 277 277 277 277 277 278 277 276 275 274 272 270 268 268 268 267 266 267 266 265 266 266 266 265 265 264 263 263 262 263 263 263 262 262 262 262 261 260 260 259 259 259 258 258 258 257 257 257 257 257 258 258 258 258 259

ECMWFFLT1_925_thetae_009.txt.gz
Theta_e
284 283 283 282 282 281 281 281 282 282 280 278 277 278 277 276 276 275 275 274 274 274 274 273 273 274 274 274 274 274 274 274 274 274 274 274 274 274 274 273 273 273 273 273 272 272 272 272 272 271 271 270 270 270 270 271 271 272 272 273 273 273 273
283 283 283 282 282 281 281 281 281 281 279 278 278 277 277 276 276 275 275 274 274 274 273 273 273 274 274 274 274 274 274 274 274 274 274 274 274 273 273 273 273 273 272 272 273 273 273 272 272 271 271 270 270 270 270 271 271 272 272 273 273 273 273
283 282 282 282 282 281 281 281 281 280 278 278 277 277 276 276 275 275 275 274 274 274 273 273 274 274 274 274 274 274 274 274 274 274 274 274 273 273 273 273 273 273 273 273 273 273 272 272 271 270 270 270 270 270 270 271 272 272 273 273 272 272 272
283 282 282 281 281 281 281 281 280 279 279 278 277 277 277 276 275 275 275 274 274 274 273 273 273 274 274 274 274 274 274 274 274 274 274 274 273 273 273 273 273 273 273 273 273 272 272 271 271 271 270 270 270 270 271 272 272 273 272 272 272 272 272
282 282 282 281 281 281 281 281 281 280 279 278 277 277 277 276 275 275 275 274 274 274 273 273 273 274 274 274 274 274 274 274 274 274 274 273 273 273 273 273 273 273 273 272 272 271 271 271 271 271 270 270 270 271 272 272 273 272 272 271 271 272 272
282 282 282 281 281 281 280 281 280 279 278 278 277 277 277 276 275 275 275 274 274 274 274 273 273 273 273 274 274 274 274 274 274 274 273 273 273 273 273 273 273 273 272 272 271 271 271 272 271 271 270 270 271 271 272 273 272 272 271 271 271 271 271
282 282 281 281 281 280 280 280 280 279 278 278 277 276 276 276 275 275 275 274 274 274 274 273 273 273 273 273 274 274 274 274 274 274 273 273 273 273 273 273 273 273 272 272 272 272 272 271 271 271 271 271 271 272 272 272 272 271 270 270 270 271 271
282 282 281 281 280 280 280 280 279 278 278 277 277 276 276 275 275 275 274 274 274 274 274 274 274 274 273 273 274 274 274 274 274 273 273 273 273 273 273 273 272 272 272 272 272 272 272 271 271 271 271 271 271 272 272 272 271 270 270 270 270 270 270
282 281 281 280 280 280 280 279 279 278 278 277 277 276 276 275 275 275 275 274 274 274 274 274 274 274 274 274 273 274 274 274 274 273 273 273 273 273 273 273 272 272 272 272 272 272 272 272 271 271 271 271 272 272 272 270 270 269 269 269 270 270 270
282 281 281 280 280 279 279 279 279 278 278 278 277 276 276 275 275 275 275 274 274 274 274 274 274 274 274 274 273 274 274 274 274 274 274 274 274 274 274 273 273 273 272 273 272 272 272 272 272 272 271 272 272 271 270 269 269 269 269 270 270 270 270
282 281 281 280 280 280 279 279 279 278 278 278 278 276 276 275 275 275 275 274 274 274 274 273 273 273 273 273 273 273 274 274 274 274 275 275 276 275 275 274 274 273 273 273 273 273 272 272 272 272 271 271 271 270 269 269 269 269 270 270 270 270 270
281 281 281 280 280 280 279 279 278 278 279 279 279 277 276 276 275 275 275 275 274 274 274 273 273 273 273 273 273 273 273 273 273 274 274 275 275 275 274 274 274 274 274 273 273 272 272 272 271 271 271 270 269 269 269 269 269 270 270 270 270 270 270
281 281 281 280 280 280 279 279 278 279 279 279 279 279 277 276 275 275 275 275 274 274 274 273 273 273 273 273 273 273 273 273 273 273 274 274 273 273 273 273 273 273 273 273 272 272 272 272 271 270 269 269 269 269 269 270 270 270 270 270 270 270 270
281 281 280 280 280 279 279 279 278 279 279 279 280 280 278 276 275 275 275 275 274 274 274 274 273 273 273 273 273 272 273 273 273 273 273 272 272 272 271 271 271 271 271 271 271 271 271 271 270 269 269 269 269 270 270 270 270 270 269 269 269 269 268
281 280 280 280 280 279 279 279 278 279 279 280 280 280 280 278 276 275 275 275 274 274 274 274 273 273 273 273 272 273 273 273 273 273 273 272 272 271 271 271 271 271 271 271 271 271 271 270 270 270 270 270 270 270 269 269 269 268 268 268 267 267 266
281 281 280 280 279 279 279 278 279 279 279 280 280 280 280 279 278 276 275 275 275 275 274 274 273 273 273 273 273 273 273 273 273 273 273 272 272 272 271 271 271 271 271 272 272 272 271 271 271 271 271 270 270 269 268 267 267 267 267 266 266 265 264
281 281 280 280 279 279 278 278 278 279 280 280 280 280 280 280 279 277 276 276 275 275 274 274 274 273 273 273 273 273 273 274 274 273 273 273 272 272 272 271 271 271 271 271 271 271 270 270 269 269 268 267 267 266 266 266 266 266 265 265 264 263 263
281 280 280 280 279 279 278 278 278 279 280 280 280 280 280 280 279 278 277 276 276 275 275 275 274 274 274 274 274 273 273 273 273 273 273 273 272 272 271 271 271 271 270 270 269 269 268 267 266 265 265 265 264 264 264 264 264 264 264 264 263 263 263
281 280 280 280 279 279 279 278 278 278 279 280 280 280 280 279 279 278 278 277 276 275 275 275 275 275 274 274 274 274 274 274 274 273 273 272 272 271 271 271 271 270 269 268 268 267 266 265 265 264 264 264 264 263 263 263 262 262 263 263 263 263 263
280 280 280 279 279 279 278 278 278 278 279 280 280 281 280 279 279 278 278 277 276 275 275 275 275 275 275 275 275 274 274 274 274 273 272 272 271 270 270 270 270 269 268 267 266 265 265 264 264 264 264 263 263 263 263 262 261 262 262 263 263 263 262
280 280 279 279 278 278 278 278 278 278 278 279 280 280 280 280 279 278 278 277 276 276 275 275 275 275 275 275 275 275 274 273 273 273 273 272 271 271 271 270 269 268 267 266 265 264 264 264 264 263 262 262 262 262 262 262 261 261 261 262 262 263 263
280 279 279 278 278 278 278 278 278 277 278 279 280 280 280 280 279 278 278 277 276 275 276 275 275 275 275 274 274 274 273 273 273 273 272 272 271 271 270 269 268 267 265 264 264 264 264 263 262 261 260 260 261 261 262 262 262 262 261 262 262 262 263
279 279 278 278 278 277 277 277 277 277 277 278 279 280 280 280 279 278 278 277 276 276 276 276 276 275 274 274 273 273 272 272 272 272 272 271 270 269 268 267 266 265 264 263 263 263 261 261 260 259 259 260 260 261 261 261 261 262 262 262 262 263 263
279 278 278 278 277 277 277 277 277 277 277 277 278 279 280 280 280 279 278 278 277 277 276 276 276 275 274 273 273 272 272 272 271 271 270 269 268 267 266 265 264 264 263 263 262 261 259 259 259 259 259 259 260 260 261 261 261 262 262 262 263 263 264
279 278 278 278 277 277 277 276 276 277 277 277 278 278 279 280 280 279 279 278 277 277 277 276 275 274 273 272 272 272 272 271 270 269 267 267 266 265 264 264 264 263 262 262 260 259 259 259 259 259 259 260 260 260 261 260 261 261 262 263 263 263 264
279 278 278 277 277 277 276 276 276 276 276 277 278 278 278 279 280 280 279 278 278 277 277 275 274 273 273 272 271 271 270 269 268 267 266 265 265 264 264 264 263 262 261 261 260 259 259 259 259 260 260 260 260 260 260 260 260 261 262 262 263 263 264
279 278 278 277 277 277 276 276 275 275 276 276 277 277 277 278 280 280 279 278 277 276 275 274 273 272 272 271 270 269 268 267 266 265 265 264 264 263 263 263 262 261 261 260 260 260 260 260 260 260 260 260 260 260 260 260 260 260 261 262 263 263 263
278 278 278 277 277 276 276 275 275 275 275 276 276 277 277 277 278 279 278 276 275 274 274 273 272 271 270 269 268 267 266 265 265 265 264 264 263 263 263 263 262 262 261 261 261 260 260 260 259 259 259 259 259 259 259 260 260 260 261 261 262 263 263
279 278 278 278 277 276 276 275 275 275 276 276 276 276 277 276 277 278 277 276 275 274 273 272 271 270 269 267 266 265 264 264 264 264 264 263 263 263 263 263 263 262 262 262 261 260 259 259 259 259 259 258 258 259 259 259 259 260 260 261 262 262 263
280 279 279 278 277 277 277 276 276 276 276 276 276 277 277 276 277 277 276 275 275 273 272 270 269 268 267 266 265 264 264 264 264 264 263 263 263 263 263 263 262 262 262 262 261 260 259 258 259 259 258 258 258 258 259 259 259 259 260 260 261 262 262
281 280 279 278 278 277 277 277 277 276 276 276 277 277 277 276 276 276 275 274 274 272 270 268 267 265 265 265 265 264 264 264 264 264 264 263 263 263 263 263 262 262 262 262 261 260 259 259 259 259 258 258 257 257 258 258 258 259 259 260 261 261 262
281 281 281 280 278 278 277 277 277 277 277 277 277 277 277 277 277 276 275 274 274 271 268 268 266 264 264 264 264 264 264 264 264 264 264 264 264 263 263 263 262 262 262 262 261 260 260 259 259 259 258 258 257 257 257 258 258 258 259 259 260 261 261
280 280 280 280 279 278 278 278 277 277 277 278 277 277 277 277 277 277 275 274 273 270 267 267 267 265 264 264 264 264 265 264 264 264 264 264 264 264 263 262 262 262 262 262 262 261 260 260 259 259 258 258 257 257 257 257 257 258 258 259 259 260 260
278 278 278 279 280 279 278 278 278 277 278 278 278 278 278 277 277 277 276 274 273 271 268 267 266 265 264 264 265 265 265 264 264 264 264 264 264 264 263 262 262 262 263 263 263 262 261 260 260 259 258 258 257 257 257 257 257 257 258 258 258 259 260
276 276 276 277 279 280 278 278 278 278 278 278 278 278 278 277 277 277 276 273 272 271 270 268 267 266 265 265 265 265 265 265 264 264 265 264 264 264 263 263 263 263 263 263 263 263 262 261 260 260 259 258 257 257 256 256 256 257 258 258 258 258 259
274 275 275 276 278 280 279 279 278 278 278 278 278 278 278 277 277 276 274 271 270 270 270 269 268 267 266 266 266 266 265 265 265 265 265 265 264 264 264 263 263 263 263 263 263 263 262 262 261 261 260 259 258 257 257 256 256 257 257 258 258 258 258

ECMWFFLT1_925_thetae_015.txt.gz
Theta_e
289 289 288 288 287 286 284 284 284 283 283 283 283 282 282 282 281 281 280 280 279 279 278 278 278 278 278 277 276 276 275 275 275 275 274 274 274 275 274 275 275 275 275 275 275 275 274 274 273 273 273 273 273 273 273 273 273 273 273 272 272 272 272
288 288 288 287 287 286 284 284 284 283 283 283 282 282 281 281 281 280 280 279 278 278 278 277 277 277 277 277 276 275 275 275 275 274 274 274 274 275 275 274 275 275 275 275 275 274 274 274 273 273 273 273 273 273 273 273 273 273 272 272 272 272 271
288 288 288 286 286 285 284 283 283 283 283 283 282 282 281 281 280 280 279 279 278 278 277 277 277 277 276 276 275 275 275 275 274 274 274 274 274 274 275 274 275 275 275 275 275 274 274 274 274 274 274 273 273 273 273 273 273 273 272 272 272 272 272
287 287 287 286 285 285 284 283 283 283 283 282 282 282 281 281 280 280 279 279 278 278 278 277 277 277 276 276 275 275 275 274 274 274 274 274 274 274 274 274 274 274 274 275 275 274 274 274 274 274 273 273 273 273 273 273 273 273 272 272 272 271 272
288 287 287 286 285 285 285 284 283 283 282 282 282 282 281 281 280 279 279 279 279 278 278 277 277 276 276 275 275 275 274 274 274 274 274 274 274 274 274 274 274 274 274 274 274 274 274 274 274 274 273 273 273 273 274 273 273 272 272 272 272 272 272
288 288 287 286 286 285 285 285 284 283 282 282 282 281 281 280 280 280 279 279 279 278 278 277 277 277 276 276 275 275 274 274 274 274 274 274 274 274 274 274 274 274 274 274 274 274 274 274 274 274 274 274 274 274 274 274 273 272 272 272 272 272 272
288 288 287 287 286 286 285 285 284 283 282 282 281 281 281 280 280 280 279 279 279 278 278 277 277 277 276 276 275 275 275 274 274 274 274 274 274 274 274 274 274 274 274 274 274 274 274 274 274 274 274 274 274 274 273 273 273 273 273 272 272 272 272
288 288 287 287 286 286 285 285 284 283 282 282 281 281 281 280 280 280 279 279 278 278 278 277 277 277 276 276 275 275 275 275 274 274 274 274 274 274 274 274 274 274 274 274 274 274 274 274 274 274 274 274 274 274 273 273 273 273 273 272 272 272 271
288 288 287 287 286 286 285 284 284 283 282 282 281 281 280 280 280 280 279 279 278 278 277 277 277 276 276 276 275 275 275 275 274 274 274 274 274 274 274 273 274 274 274 274 274 274 274 274 274 274 274 274 274 274 274 273 273 272 272 272 271 271 271
288 288 287 287 286 286 285 284 284 283 282 282 281 281 280 280 280 280 279 278 278 277 277 277 276 276 276 276 275 275 275 275 274 274 274 274 274 274 273 273 273 273 273 274 274 274 274 274 275 275 274 274 274 274 273 273 272 272 271 271 271 271 271
288 288 287 287 286 286 285 284 283 283 282 282 282 281 280 280 279 279 279 278 278 277 276 276 276 276 275 275 275 275 275 275 275 274 274 274 274 274 274 273 273 273 273 273 273 274 274 274 275 275 274 274 274 273 273 272 272 271 271 271 271 271 271
288 288 287 287 286 285 284 284 283 282 282 282 282 281 280 280 279 279 278 278 278 277 276 276 276 275 275 275 275 275 275 275 276 275 275 275 274 274 274 274 273 273 273 273 274 274 275 275 275 274 274 273 273 272 272 271 271 271 271 271 271 271 271
288 288 288 287 286 285 284 283 282 282 282 282 283 282 281 280 279 279 278 278 278 277 277 276 275 275 275 275 275 275 275 275 276 276 276 276 275 275 274 274 274 274 274 274 274 274 274 274 274 273 272 272 271 271 271 271 272 272 272 272 271 271 271
288 288 288 287 286 285 284 283 282 282 282 282 283 283 281 280 279 279 278 278 277 277 277 276 276 275 274 274 275 275 275 275 275 276 276 276 276 276 276 276 276 276 276 276 275 274 273 272 272 271 271 271 271 271 271 272 272 272 271 271 270 269 269
288 288 288 287 286 285 284 283 282 281 282 283 283 284 282 280 279 279 278 278 277 277 277 276 276 275 275 274 274 275 275 274 275 275 276 276 276 276 276 276 276 276 275 275 274 273 271 271 271 272 272 272 272 272 271 271 271 270 269 268 267 267 266
288 287 287 287 286 284 283 282 282 281 282 283 283 284 283 280 279 279 278 277 277 277 277 276 276 275 275 274 274 275 275 275 274 274 275 275 275 275 275 275 275 274 274 274 273 272 272 272 273 273 272 272 272 271 270 269 268 267 266 266 266 265 265
288 287 287 286 285 284 283 282 282 282 282 283 283 284 283 280 279 278 278 277 277 277 276 276 276 275 275 274 274 274 275 275 274 274 274 274 274 274 274 273 273 273 272 273 273 273 273 273 272 272 272 271 271 269 268 266 266 265 265 264 264 264 264
287 287 287 286 285 284 283 282 282 282 282 283 283 284 283 281 279 278 278 277 277 276 276 276 276 275 275 274 274 275 275 276 275 274 273 273 273 273 273 272 272 272 272 272 272 272 272 271 271 271 270 270 269 268 266 264 264 263 262 262 262 262 263
287 287 286 286 285 284 283 282 281 281 282 283 283 283 282 281 279 278 277 277 276 276 276 276 276 276 275 274 275 275 275 276 276 274 273 273 272 272 272 272 272 272 272 271 271 271 271 270 270 269 268 267 266 266 264 263 262 261 260 260 261 261 261
287 286 286 285 284 283 282 282 281 281 282 283 283 283 282 280 280 278 277 276 276 276 275 275 276 276 275 275 275 275 276 277 276 275 274 273 273 273 273 273 272 272 271 271 271 270 270 269 268 267 266 266 265 264 263 262 261 260 259 259 259 260 260
286 286 285 284 283 282 282 282 281 280 281 282 283 283 282 281 280 279 277 276 276 276 275 275 275 275 275 275 275 275 276 277 277 276 275 274 274 273 273 273 272 271 271 271 270 269 269 268 267 266 266 266 265 264 263 262 262 261 260 259 258 259 259
285 284 283 282 282 281 281 281 281 280 281 282 283 283 282 281 280 279 277 276 276 275 275 275 275 275 276 276 276 276 277 277 277 276 275 275 274 274 273 272 272 271 270 270 269 268 267 267 266 266 266 265 264 263 262 262 262 262 261 260 259 259 258
284 283 282 281 281 280 280 280 280 280 280 281 282 283 283 282 280 279 278 277 276 276 275 275 275 275 276 277 277 277 277 277 277 276 276 275 274 273 273 272 271 270 269 269 268 267 267 266 266 265 265 264 263 263 262 262 262 262 261 261 261 260 260
283 282 281 280 279 279 279 280 280 280 280 280 281 282 283 282 280 279 279 278 277 276 276 276 276 276 277 277 277 277 278 277 277 276 275 274 273 273 272 271 270 269 268 267 267 266 266 266 265 264 264 264 264 264 264 263 263 263 262 262 262 262 262
282 281 280 280 279 278 278 279 279 279 279 280 280 281 282 282 281 279 279 279 278 277 277 277 277 277 277 278 278 278 277 276 276 275 274 273 272 272 272 271 269 268 267 267 266 265 265 265 265 264 264 264 265 265 265 265 265 265 264 263 263 264 264
281 280 280 279 279 278 278 278 278 279 279 279 280 280 282 282 281 280 280 280 279 278 278 277 277 277 278 278 278 277 276 275 274 273 272 272 272 271 270 269 268 267 267 266 265 265 265 265 265 265 265 265 265 265 265 265 265 265 265 264 263 264 264
281 280 279 279 279 278 278 277 277 278 278 279 279 279 281 282 281 280 280 279 278 278 277 277 277 277 277 277 276 275 274 273 273 272 271 271 270 269 268 267 267 267 266 265 265 265 265 265 265 266 267 266 266 265 265 264 263 263 263 263 262 261 262
281 280 280 279 279 278 277 277 277 277 277 278 279 279 279 281 281 280 279 278 277 277 277 277 276 275 275 275 274 274 273 272 271 271 270 269 268 267 267 267 267 266 265 265 265 265 265 266 266 267 267 267 267 265 264 264 262 261 261 261 260 260 261
281 281 280 280 279 278 277 277 277 278 278 278 279 279 279 280 281 280 279 278 277 276 275 274 274 273 272 272 272 271 270 270 269 269 268 267 266 266 266 266 266 265 265 265 265 265 266 267 268 268 268 267 267 266 264 263 262 261 260 260 259 260 261
282 282 281 280 279 279 278 278 279 278 278 278 278 279 279 279 280 280 278 277 277 276 274 273 272 271 270 269 269 268 267 268 268 267 266 265 265 265 265 265 265 265 265 265 265 265 266 267 268 268 267 267 266 266 265 263 261 260 259 259 259 260 261
281 281 281 281 280 280 279 279 279 279 278 278 279 279 279 279 279 279 278 277 276 275 273 271 270 269 268 268 268 267 267 268 267 266 266 265 265 265 265 264 264 265 265 265 265 265 266 267 267 267 266 266 266 266 265 264 262 260 259 259 259 260 260
279 279 280 281 281 280 280 279 279 279 279 279 279 279 279 279 279 279 277 277 276 274 272 271 269 268 267 267 267 267 267 267 267 266 266 265 265 265 265 264 264 264 264 265 265 266 267 267 267 266 265 265 265 265 264 263 261 260 259 259 259 260 260
277 277 278 279 281 281 280 280 279 279 279 279 279 280 279 279 280 279 277 276 275 272 271 270 269 267 267 267 267 267 267 266 266 266 266 266 266 265 265 264 264 264 264 265 265 266 267 267 267 266 265 265 265 265 263 261 260 260 259 259 259 259 260
276 276 276 278 280 281 280 280 279 280 280 280 280 280 280 280 279 278 277 276 274 272 271 270 268 267 266 266 267 268 267 266 266 266 266 266 265 265 264 264 264 264 264 265 265 266 267 267 266 266 265 265 266 265 262 260 260 259 259 258 258 259 259
275 276 276 276 279 281 281 280 280 280 280 280 280 280 280 280 279 277 275 274 273 272 271 270 268 267 266 267 268 268 267 267 266 266 266 266 265 264 264 264 264 264 264 264 265 266 266 266 266 265 265 265 265 264 262 261 260 259 259 258 258 258 259
274 275 276 276 278 280 281 280 280 280 280 280 280 280 280 279 277 275 273 272 271 270 270 269 268 268 268 269 270 268 267 267 267 266 266 266 265 265 265 264 264 264 264 265 266 266 266 266 265 265 265 265 265 264 262 260 260 259 259 259 258 258 258

ECMWFFLT1_925_thetae_021.txt.gz
Theta_e
288 288 289 289 289 289 289 289 289 288 287 287 287 287 287 287 287 287 287 287 287 287 287 287 287 286 286 286 284 283 283 283 283 282 282 282 282 282 282 282 282 283 282 280 279 279 278 278 278 277 277 278 278 277 277 277 277 277 277 277 277 277 277
288 288 288 288 289 289 289 289 289 288 288 287 287 287 287 287 287 287 287 287 287 287 286 286 286 286 286 285 284 283 283 283 282 282 281 281 281 281 281 281 281 282 282 280 278 278 278 277 277 277 277 277 277 277 277 277 277 277 277 277 277 277 277
287 287 288 288 288 289 289 289 289 288 288 287 287 287 286 286 286 286 287 287 287 287 286 286 285 285 285 285 284 283 283 282 282 281 281 280 280 280 280 280 280 281 281 281 279 278 277 277 277 277 277 277 277 277 277 277 277 277 277 277 277 277 277
287 287 287 287 288 288 288 288 289 288 288 288 287 287 287 286 286 286 286 287 286 286 286 285 285 285 285 284 284 283 282 282 281 281 280 280 280 279 279 279 280 280 280 280 280 278 278 277 277 277 277 277 277 277 277 277 277 277 277 277 277 277 277
287 287 287 287 287 288 288 288 288 288 288 288 288 287 287 287 286 286 286 286 286 286 286 285 285 284 284 284 283 283 282 281 281 280 280 280 279 279 279 279 279 279 279 279 279 279 278 277 277 277 276 276 276 276 277 277 277 277 277 277 277 277 277
287 287 287 287 287 287 287 288 288 288 288 288 288 288 287 287 286 286 286 286 286 286 285 285 285 284 284 284 283 283 282 281 281 280 280 279 279 279 279 279 278 278 278 279 279 279 279 278 277 277 276 276 276 276 276 277 277 277 277 277 277 277 277
286 286 286 287 287 287 287 287 287 288 288 288 288 288 287 287 286 286 286 286 285 285 285 285 284 284 284 284 283 282 282 281 280 280 279 279 279 279 279 278 278 278 278 278 279 279 279 278 277 277 276 276 276 276 276 277 277 277 277 277 277 277 277
287 286 286 286 286 286 287 287 287 288 288 288 288 288 287 287 286 286 286 286 285 285 285 284 284 284 284 283 283 282 282 281 280 280 279 279 279 279 278 278 278 278 278 278 278 278 278 278 278 277 277 276 276 276 276 277 277 277 278 278 277 277 277
287 287 287 286 286 287 287 287 287 288 288 288 288 288 287 287 286 286 286 286 285 285 285 284 284 283 283 283 283 282 282 281 280 280 279 279 279 278 278 278 278 278 278 278 278 278 278 278 278 277 277 277 277 277 277 277 277 277 277 277 277 277 277
287 287 287 287 287 287 287 287 287 287 287 288 287 287 287 287 287 286 286 286 285 285 285 284 284 283 283 283 282 282 281 281 280 280 279 279 278 278 278 278 278 278 278 278 278 278 278 278 278 278 277 277 277 277 277 278 278 277 277 277 277 276 276
287 287 287 287 287 287 287 287 287 287 287 287 287 287 287 287 287 287 287 286 285 285 284 284 284 283 283 282 282 281 281 280 280 279 279 279 278 278 278 278 278 278 277 278 278 278 278 278 278 278 278 278 278 278 278 278 277 277 277 277 276 276 276
287 287 287 287 287 287 287 287 287 287 287 287 287 287 287 288 287 287 287 286 285 285 284 284 284 283 282 282 281 281 280 280 280 279 279 279 278 278 278 278 278 278 278 278 278 278 278 278 278 278 278 278 278 277 277 277 277 277 276 276 276 275 275
287 287 287 287 287 287 287 287 286 286 287 287 287 287 287 288 288 288 287 286 285 285 284 284 283 283 282 281 281 280 280 280 280 279 279 278 278 278 278 278 278 278 278 278 278 278 278 278 278 278 278 277 277 277 277 277 276 276 275 275 275 275 275
287 287 287 287 287 287 286 286 286 286 287 287 287 287 287 288 288 288 287 286 285 285 284 284 283 282 281 280 280 280 280 279 279 279 279 278 278 278 278 278 278 278 278 277 277 277 278 278 277 277 277 277 277 276 276 276 275 275 275 274 274 274 274
287 287 286 286 286 286 286 286 286 287 287 287 287 287 288 288 288 288 287 286 285 284 284 283 283 282 281 280 280 279 279 279 279 279 279 278 278 278 278 278 278 278 277 277 277 277 277 277 277 277 277 276 276 275 275 274 274 274 274 273 273 273 273
286 286 286 286 286 286 286 286 286 287 287 287 287 287 288 288 288 287 287 286 284 284 283 283 282 281 280 279 279 279 279 279 279 279 278 278 278 278 277 278 278 277 277 277 276 276 276 276 276 276 276 276 275 274 274 274 273 273 272 272 272 272 272
286 286 286 286 286 286 286 286 287 287 287 287 287 288 288 287 287 286 285 284 283 282 282 282 281 280 280 279 279 279 279 279 278 278 278 278 277 277 277 277 277 277 277 277 276 276 276 275 276 276 275 275 274 274 274 273 272 272 272 272 272 272 272
286 287 286 286 286 286 287 287 287 287 287 287 287 287 287 286 285 283 282 282 282 281 281 281 280 280 279 278 278 279 279 279 278 278 278 277 277 277 277 276 276 277 277 277 277 276 276 275 276 275 275 274 274 274 273 273 272 272 271 271 271 271 271
287 287 287 287 287 287 287 287 287 287 287 287 287 287 286 285 283 282 281 281 280 280 280 280 280 279 279 278 278 279 280 279 278 278 278 277 277 277 276 276 276 277 277 277 277 276 275 275 275 275 274 274 274 273 273 272 272 271 270 269 269 269 269
287 287 287 287 287 287 287 287 287 287 286 286 286 286 286 284 282 281 281 280 280 279 279 279 279 279 279 278 278 279 280 280 278 277 277 277 277 277 276 276 276 276 277 276 276 275 275 274 274 274 273 273 273 272 272 271 271 270 269 268 268 268 268
287 287 287 287 287 287 286 286 286 285 285 285 284 285 285 283 282 281 280 280 279 279 278 278 279 279 279 278 278 279 280 280 279 277 277 277 277 276 276 276 276 276 276 275 275 274 274 273 273 272 272 272 271 271 270 270 270 269 269 268 267 266 267
287 287 287 287 286 286 285 284 284 283 283 283 283 284 284 282 281 281 280 279 279 279 278 278 278 278 278 278 279 279 280 280 279 278 277 277 277 277 276 276 275 275 274 274 273 273 272 272 271 271 270 270 270 269 269 269 269 269 269 268 267 267 266
287 287 287 286 285 285 284 283 282 282 282 282 282 283 283 282 282 281 280 279 279 278 278 278 278 278 278 279 279 279 280 280 279 278 277 277 277 277 276 275 275 274 273 273 273 272 272 271 270 270 269 268 268 269 269 269 269 269 269 268 268 268 267
287 287 286 285 284 284 283 282 281 281 281 281 282 283 283 283 282 281 280 279 279 279 278 278 278 278 278 279 279 279 280 280 279 277 277 277 277 276 275 274 274 273 273 272 272 271 271 271 269 269 268 268 268 269 269 269 269 269 269 269 269 268 268
286 286 285 284 284 283 283 282 281 281 281 281 282 283 283 283 282 281 280 280 279 279 278 278 278 278 279 279 279 279 280 279 278 277 277 277 277 275 274 274 273 272 272 272 271 271 271 270 269 268 268 268 268 269 269 269 269 269 269 269 269 269 269
285 285 284 284 284 283 282 281 281 281 281 281 282 283 283 283 282 281 280 280 279 279 278 278 278 279 279 279 279 279 279 278 277 277 277 277 276 275 274 273 272 272 271 271 271 270 270 269 268 268 269 268 268 269 269 269 269 269 268 268 267 267 268
284 284 284 284 284 283 282 281 281 281 281 281 282 283 283 282 281 281 280 279 279 278 278 279 279 279 279 279 279 279 279 278 277 277 276 275 274 274 273 272 272 272 271 271 270 269 269 269 268 269 269 268 269 269 269 269 269 268 267 266 265 266 267
283 283 283 283 283 283 282 282 281 281 281 281 282 282 282 282 281 280 279 279 278 278 279 279 279 279 278 278 277 277 277 276 276 275 274 274 273 273 272 272 271 271 270 269 269 269 268 268 268 268 268 269 269 268 268 268 268 267 266 266 265 266 267
282 282 282 282 282 283 283 282 282 281 280 281 281 282 282 281 280 279 279 278 278 278 278 278 277 277 276 275 275 274 274 273 273 272 272 272 272 272 272 271 271 270 269 268 268 268 268 268 268 268 268 268 268 267 267 268 268 267 266 266 266 266 267
280 280 280 280 281 282 282 282 281 280 280 280 281 282 282 281 280 279 279 279 278 278 277 276 275 275 275 274 274 273 271 271 271 271 270 270 271 271 271 270 269 268 268 268 268 268 268 268 268 268 268 268 267 267 267 267 267 266 266 266 266 266 267
279 279 279 279 279 280 281 281 280 280 280 280 281 282 282 281 280 280 279 278 278 277 276 275 274 274 274 274 273 272 271 271 271 270 270 269 269 270 270 269 268 268 268 268 268 268 269 268 268 268 268 268 267 267 267 266 266 266 266 266 266 266 266
278 278 278 278 279 280 281 281 280 280 280 280 281 282 282 281 280 280 279 278 278 276 275 274 274 274 274 273 273 272 271 271 270 270 269 269 268 268 268 267 267 268 268 268 268 268 268 268 268 268 268 268 268 267 267 266 266 266 266 266 266 266 266
278 278 279 279 280 281 281 281 280 280 281 281 281 282 282 281 281 280 279 278 277 276 275 275 274 274 274 273 273 272 271 271 270 270 269 269 268 267 267 267 267 268 268 268 268 268 268 268 268 268 268 268 267 267 266 266 266 266 266 266 266 266 265
278 279 280 281 281 281 281 281 281 281 281 281 281 282 282 281 281 280 279 278 277 276 275 275 274 274 274 273 273 272 272 271 270 270 269 268 268 267 267 267 267 267 268 267 267 267 268 268 268 268 268 267 266 266 266 266 266 265 265 265 265 265 265
278 279 281 281 281 281 281 281 281 281 281 281 281 282 282 281 280 279 278 277 276 276 276 275 274 274 274 273 273 272 271 271 270 270 269 268 267 267 267 267 267 267 267 267 267 267 268 268 268 268 268 267 267 267 266 266 265 265 264 264 264 264 264
278 279 281 281 281 281 281 281 281 281 281 281 282 282 281 280 278 277 276 276 276 276 276 275 275 274 274 273 272 272 271 271 270 269 269 268 267 267 267 267 267 267 267 267 267 267 268 268 268 268 268 267 267 266 266 265 265 264 264 264 264 263 263

ECMWFFLT1_925_thetae_024.txt.gz
Theta_e
287 287 287 287 287 287 288 288 288 289 289 289 289 288 288 288 288 288 288 288 288 288 289 288 288 288 288 288 288 288 288 287 286 286 286 286 286 286 286 286 286 286 284 280 280 280 280 281 280 280 280 280 280 280 279 279 279 279 278 278 277 277 277
287 287 287 287 287 287 287 288 288 288 289 289 289 288 288 288 287 288 288 288 288 288 288 288 288 288 288 288 288 288 288 287 286 285 285 285 285 285 285 285 285 285 283 280 280 280 280 280 280 279 279 279 279 279 279 279 279 278 278 277 277 277 277
286 286 286 287 287 286 287 287 288 288 288 288 288 288 288 287 287 287 287 287 288 288 288 288 288 288 287 287 287 287 287 287 286 285 285 285 285 285 285 285 285 284 282 280 279 279 279 279 279 279 279 279 279 279 278 278 278 278 277 277 277 277 277
286 286 286 287 287 287 287 287 287 288 288 288 288 288 288 287 287 287 287 287 287 287 287 287 287 287 287 287 287 287 286 286 285 284 284 284 284 284 284 284 284 284 283 280 279 278 278 279 278 278 278 278 278 278 278 278 278 277 277 277 277 277 277
286 286 286 287 287 287 287 287 287 287 287 288 288 288 288 288 287 287 287 287 287 287 287 287 287 287 287 286 286 286 286 285 284 284 283 283 283 283 283 283 283 283 283 281 279 278 278 278 278 278 278 278 278 278 278 277 277 277 277 277 277 277 277
284 284 285 286 286 286 286 286 287 287 287 287 287 288 288 288 288 287 287 287 286 286 287 287 287 287 286 286 286 286 285 285 284 283 283 283 282 282 282 282 282 282 282 281 280 278 278 277 277 277 277 278 278 277 277 277 277 277 277 277 277 277 277
283 283 284 286 286 286 286 287 287 287 287 287 287 287 288 288 288 288 287 287 287 286 286 286 286 287 286 286 285 285 285 285 284 283 283 282 282 282 281 281 281 281 281 281 280 279 278 277 277 277 277 277 277 277 277 277 277 277 277 277 277 277 277
283 283 284 286 286 286 286 286 287 287 287 287 287 287 287 287 287 288 287 287 287 286 286 286 286 286 286 286 285 285 285 284 284 283 282 282 282 281 281 280 280 280 281 281 281 280 278 277 277 277 277 277 277 277 276 277 277 276 277 277 277 277 277
283 283 285 286 286 286 286 286 286 286 286 286 286 286 286 286 287 287 287 287 287 286 286 286 285 285 285 285 285 285 285 284 284 283 282 282 281 281 280 280 280 280 280 280 280 280 279 278 277 277 277 276 276 276 276 276 276 276 277 277 277 277 277
283 283 285 286 286 286 286 286 286 286 286 286 286 287 287 287 287 287 287 287 287 286 286 286 285 285 285 285 285 285 285 284 284 283 282 282 281 281 280 280 279 279 280 280 280 280 280 279 278 277 277 276 276 276 276 277 276 276 277 277 277 277 277
283 284 285 286 286 286 286 286 287 286 286 286 287 287 287 287 288 288 287 287 287 286 286 286 286 285 285 285 285 284 284 284 284 283 282 282 281 281 280 280 280 279 279 279 279 280 280 279 278 277 277 277 277 277 277 277 277 277 277 277 277 277 277
282 284 285 286 286 286 287 287 287 287 287 287 287 287 287 287 287 287 287 287 287 287 286 286 286 286 285 285 285 284 284 284 284 283 282 282 281 281 280 280 280 280 279 279 279 279 279 279 279 278 277 277 277 277 277 277 277 277 277 277 277 276 276
282 284 285 286 286 287 287 287 287 287 287 287 287 287 287 287 287 287 287 287 287 287 287 286 286 286 285 285 285 284 284 284 283 283 282 282 281 280 280 280 280 280 280 279 279 279 279 279 279 278 278 278 278 278 277 277 277 277 277 277 276 276 276
283 284 286 286 286 287 287 287 287 287 287 287 287 287 287 287 287 287 287 287 287 287 287 287 286 286 285 285 285 284 284 283 283 283 282 281 281 280 280 280 280 280 280 279 279 279 279 279 279 278 278 278 278 278 278 277 277 277 277 276 276 275 275
284 285 286 286 286 287 287 287 286 286 286 286 286 287 287 287 287 287 287 287 287 287 287 287 287 286 285 285 284 284 284 283 282 282 282 281 280 280 280 280 280 280 279 279 279 279 279 279 279 278 278 278 278 278 278 277 277 277 276 276 275 275 275
285 286 286 286 286 286 286 286 286 286 286 286 287 287 287 287 287 287 287 287 287 287 287 287 287 286 285 285 284 284 283 283 282 281 281 280 280 280 280 280 280 279 279 279 279 279 279 279 278 278 278 278 278 277 277 277 277 276 275 275 274 274 274
285 286 286 286 286 286 286 286 286 286 286 287 287 287 287 287 287 287 287 287 287 287 287 287 286 286 285 284 284 283 283 282 282 281 280 280 280 279 279 279 279 279 279 279 279 278 278 278 278 278 278 278 278 277 277 277 276 275 274 274 273 272 272
285 286 286 286 286 286 286 286 286 286 286 287 287 287 287 287 287 287 287 287 287 287 287 286 286 285 284 284 283 282 282 282 281 280 280 280 279 279 279 279 279 279 279 279 278 278 278 278 278 278 277 277 277 277 277 276 275 275 274 273 272 271 271
285 286 286 286 287 287 287 287 287 287 287 287 287 287 287 287 287 287 287 286 286 285 285 284 284 284 283 283 282 282 282 282 281 280 280 279 279 278 278 278 278 279 279 279 278 278 278 278 278 277 277 277 276 276 276 276 275 275 274 273 272 271 271
285 286 286 286 286 287 287 287 287 287 287 286 286 286 286 286 287 286 285 285 284 283 282 282 283 283 282 282 282 281 282 282 281 280 279 279 278 278 278 278 278 278 278 278 277 277 277 277 277 277 276 276 275 275 275 275 274 274 274 273 272 271 271
285 286 286 286 287 287 287 287 286 285 285 285 284 284 285 285 286 285 284 283 282 282 281 281 281 281 281 281 281 281 282 282 281 280 279 278 278 278 278 278 278 278 278 277 277 276 276 276 276 276 275 275 275 275 275 274 274 273 273 272 272 271 270
285 286 286 287 287 287 286 285 284 284 284 283 283 283 284 284 284 284 283 282 281 280 280 280 280 280 281 281 281 281 281 281 281 279 279 278 278 278 278 277 277 277 277 276 276 275 274 274 274 274 274 274 274 274 274 273 273 272 272 271 271 270 269
286 286 286 286 286 285 285 284 283 283 283 282 282 282 283 283 283 283 283 281 280 280 279 279 280 280 280 280 281 281 281 281 281 279 278 278 278 278 278 277 277 276 276 275 274 274 273 272 273 273 273 273 273 273 272 272 271 270 270 269 269 269 269
285 285 285 285 285 284 284 283 283 283 282 281 282 282 282 283 283 282 282 281 280 280 279 279 279 279 280 280 280 281 281 281 280 279 278 279 279 278 277 276 276 275 275 274 273 273 272 272 272 273 273 273 272 272 270 270 269 269 269 269 269 269 269
284 284 283 284 284 284 284 283 283 282 281 281 281 282 282 283 283 282 281 281 280 280 279 279 279 279 280 280 280 280 281 281 280 279 279 279 278 277 276 275 275 274 274 273 273 272 272 271 271 272 272 271 271 270 269 269 269 269 270 270 270 269 269
282 282 282 283 283 284 283 283 282 282 281 281 281 282 283 284 283 282 281 280 280 279 279 279 279 279 280 280 280 280 280 280 279 279 279 278 277 276 275 275 274 274 273 273 272 272 271 271 270 270 270 269 269 269 269 269 270 270 270 270 270 270 269
282 281 281 282 283 283 283 283 282 282 281 281 281 282 283 283 282 281 280 279 279 279 279 279 279 280 280 280 280 280 279 279 279 278 277 276 275 275 275 274 274 274 273 272 272 271 271 270 269 269 268 268 268 269 269 269 270 270 270 269 269 269 269
281 281 281 281 281 281 282 282 282 282 281 281 282 283 283 282 281 280 279 279 279 279 279 279 280 280 280 279 279 278 278 278 277 276 275 274 274 274 273 273 273 273 272 272 271 270 270 269 268 268 268 268 268 269 269 269 269 269 269 269 268 268 268
281 280 280 280 280 280 280 281 282 281 281 281 282 282 282 281 280 279 279 279 279 279 279 279 278 278 278 277 277 276 275 275 274 273 273 273 273 273 272 272 272 272 271 271 270 270 269 268 268 268 268 268 268 268 269 269 269 269 268 268 267 267 267
280 279 279 279 279 279 279 280 281 281 281 281 282 282 282 281 280 279 279 279 279 279 278 277 277 276 276 275 275 274 273 272 272 272 272 272 272 272 272 271 271 271 270 270 269 269 269 268 268 268 268 269 268 268 268 268 268 268 268 267 267 267 267
279 280 280 280 279 279 279 280 281 281 281 281 282 282 281 280 280 280 279 279 279 278 277 276 275 275 274 274 273 273 272 272 272 271 271 270 271 271 271 271 270 269 269 269 269 269 269 269 269 269 268 269 269 268 268 267 267 267 267 267 266 267 267
280 281 281 281 281 280 281 281 281 281 281 281 282 282 281 280 280 280 279 279 278 277 276 275 275 274 273 273 272 272 272 272 271 271 270 270 269 269 269 270 270 269 269 269 268 268 269 269 269 269 269 269 269 268 267 267 267 266 266 266 266 266 266
280 281 282 282 281 281 281 281 281 281 281 282 282 282 281 281 281 280 279 278 278 276 275 275 275 274 273 273 272 272 271 271 271 270 270 270 270 269 269 269 269 268 268 269 269 269 269 269 269 269 269 268 268 267 267 267 266 266 266 266 266 266 265
280 281 281 281 281 281 281 281 281 281 281 282 282 282 281 281 280 279 278 278 277 276 275 275 274 274 273 273 272 272 271 270 270 270 270 270 270 269 268 268 267 267 268 269 269 269 269 269 269 269 269 268 267 267 267 266 266 266 266 266 265 265 265
278 280 280 281 281 281 281 281 281 281 282 282 282 282 281 280 279 278 277 277 276 276 275 275 274 274 273 273 272 271 271 270 270 270 270 270 269 268 267 267 267 267 268 269 269 269 269 269 269 269 269 269 268 267 267 266 266 266 266 266 265 265 265
278 279 280 281 281 282 282 282 282 282 282 282 282 282 280 279 278 277 276 276 276 275 275 275 274 274 273 272 272 271 271 271 271 270 271 271 270 268 267 266 267 268 268 269 269 269 269 269 269 269 269 269 268 267 267 267 266 266 266 265 265 264 264